�������l�o���
Date,Time,MP-1(��Sv/h),MP-2(��Sv/h),MP-3(��Sv/h),MP-4(��Sv/h),MP-5(��Sv/h),MP-6(��Sv/h),MP-7(��Sv/h),����,����(m/s),���J
2018/06/12,00:00,0.296,0.189,0.301,0.289,0.289,0.147,0.093,�k,10.0,��
2018/06/12,00:10,0.297,0.189,0.300,0.288,0.291,0.148,0.093,�k,10.9,��
2018/06/12,00:20,0.295,0.189,0.301,0.290,0.290,0.147,0.093,�k,9.2,��
2018/06/12,00:30,0.297,0.189,0.301,0.288,0.290,0.149,0.093,-,CALM,��
2018/06/12,00:40,0.297,0.189,0.300,0.290,0.290,0.148,0.093,-,CALM,��
2018/06/12,00:50,0.299,0.189,0.301,0.289,0.287,0.148,0.093,-,CALM,��
2018/06/12,01:00,0.296,0.189,0.300,0.290,0.293,0.148,0.093,-,CALM,��
2018/06/12,01:10,0.299,0.189,0.302,0.290,0.290,0.149,0.092,-,CALM,��
2018/06/12,01:20,0.296,0.190,0.301,0.292,0.292,0.147,0.092,-,CALM,��
2018/06/12,01:30,0.297,0.190,0.303,0.289,0.288,0.149,0.093,�k��,3.4,��
2018/06/12,01:40,0.296,0.189,0.301,0.291,0.290,0.148,0.093,�k��,3.1,��
2018/06/12,01:50,0.298,0.189,0.303,0.292,0.289,0.149,0.092,�k,10.0,��
2018/06/12,02:00,0.299,0.190,0.301,0.291,0.291,0.148,0.093,�k,8.8,��
2018/06/12,02:10,0.298,0.190,0.301,0.291,0.290,0.148,0.093,-,CALM,��
2018/06/12,02:20,0.300,0.191,0.302,0.292,0.292,0.149,0.093,-,CALM,��
2018/06/12,02:30,0.298,0.189,0.301,0.292,0.288,0.148,0.093,�k�k��,8.4,��
2018/06/12,02:40,0.299,0.190,0.302,0.291,0.290,0.148,0.093,-,CALM,��
2018/06/12,02:50,0.299,0.188,0.301,0.291,0.291,0.148,0.093,-,CALM,��
2018/06/12,03:00,0.299,0.189,0.303,0.291,0.290,0.148,0.092,-,CALM,��
2018/06/12,03:10,0.297,0.189,0.301,0.292,0.290,0.150,0.093,-,CALM,��
2018/06/12,03:20,0.301,0.190,0.302,0.292,0.288,0.148,0.092,��쐼,6.6,��
2018/06/12,03:30,0.298,0.190,0.303,0.292,0.292,0.148,0.093,-,CALM,��
2018/06/12,03:40,0.299,0.189,0.305,0.290,0.290,0.148,0.092,-,CALM,��
2018/06/12,03:50,0.298,0.190,0.302,0.292,0.291,0.149,0.092,-,CALM,��
2018/06/12,04:00,0.298,0.188,0.303,0.290,0.288,0.148,0.092,�k�k��,9.0,��
2018/06/12,04:10,0.298,0.191,0.303,0.292,0.291,0.149,0.092,�k�k��,7.4,��
2018/06/12,04:20,0.299,0.189,0.302,0.291,0.289,0.149,0.092,�k�k��,4.1,��
2018/06/12,04:30,0.301,0.189,0.304,0.293,0.292,0.150,0.093,�k,7.4,��
2018/06/12,04:40,0.298,0.191,0.303,0.291,0.290,0.149,0.092,�k,6.0,��
2018/06/12,04:50,0.301,0.190,0.304,0.294,0.292,0.149,0.093,�k,4.4,��
2018/06/12,05:00,0.298,0.190,0.302,0.291,0.289,0.148,0.092,�k,5.7,��
2018/06/12,05:10,0.301,0.189,0.304,0.293,0.291,0.149,0.092,�k,8.1,��
2018/06/12,05:20,0.297,0.191,0.302,0.291,0.289,0.149,0.093,�k,1.1,��
2018/06/12,05:30,0.300,0.189,0.304,0.293,0.292,0.149,0.092,�k,3.6,��
2018/06/12,05:40,0.298,0.190,0.302,0.291,0.289,0.149,0.093,�k�k��,7.0,��
2018/06/12,05:50,0.299,0.188,0.303,0.293,0.290,0.149,0.092,�k,6.2,��
2018/06/12,06:00,0.297,0.189,0.302,0.291,0.288,0.149,0.093,�k,6.2,��
2018/06/12,06:10,0.301,0.189,0.304,0.293,0.291,0.149,0.092,-,CALM,��
2018/06/12,06:20,0.298,0.191,0.302,0.290,0.288,0.149,0.093,�k�k��,3.6,��
2018/06/12,06:30,0.300,0.189,0.304,0.293,0.292,0.149,0.092,-,CALM,��
2018/06/12,06:40,0.298,0.190,0.301,0.291,0.290,0.148,0.092,�k�k��,1.1,��
2018/06/12,06:50,0.300,0.189,0.305,0.293,0.290,0.149,0.092,�k�k��,6.9,��
2018/06/12,07:00,0.298,0.190,0.302,0.291,0.291,0.148,0.092,�k�k��,5.9,��
2018/06/12,07:10,0.299,0.190,0.305,0.294,0.289,0.149,0.092,�k�k��,4.5,��
2018/06/12,07:20,0.300,0.188,0.303,0.291,0.292,0.149,0.092,�k�k��,5.0,��
2018/06/12,07:30,0.299,0.190,0.301,0.290,0.289,0.149,0.092,�k�k��,4.7,��
2018/06/12,07:40,0.301,0.190,0.303,0.294,0.290,0.150,0.092,�k�k��,5.6,��
2018/06/12,07:50,0.297,0.188,0.302,0.292,0.293,0.149,0.092,�k��,4.9,��
2018/06/12,08:00,0.301,0.190,0.305,0.291,0.288,0.150,0.092,�k��,4.9,��
2018/06/12,08:10,0.300,0.191,0.302,0.294,0.291,0.149,0.092,�k��,5.6,��
2018/06/12,08:20,0.300,0.191,0.303,0.291,0.292,0.148,0.093,�k��,4.2,��
2018/06/12,08:30,0.300,0.190,0.304,0.294,0.289,0.150,0.092,�k��,4.8,��
2018/06/12,08:40,0.299,0.189,0.303,0.292,0.292,0.150,0.092,�k��,4.1,��
2018/06/12,08:50,0.301,0.191,0.305,0.293,0.293,0.148,0.092,�k��,3.7,��
2018/06/12,09:00,0.299,0.190,0.304,0.294,0.289,0.151,0.092,�k��,3.2,��
2018/06/12,09:10,0.301,0.190,0.304,0.292,0.292,0.149,0.093,�k��,3.4,��
2018/06/12,09:20,0.302,0.189,0.304,0.295,0.289,0.149,0.093,���k��,2.8,��
2018/06/12,09:30,0.300,0.190,0.302,0.294,0.293,0.150,0.092,���k��,2.6,��
2018/06/12,09:40,0.302,0.190,0.305,0.294,0.292,0.149,0.093,��,2.2,��
2018/06/12,09:50,0.301,0.191,-,0.294,0.290,0.149,0.092,���k��,1.8,��
2018/06/12,10:00,0.302,0.190,-,0.294,0.294,0.150,0.092,��,1.1,��
2018/06/12,10:10,0.300,0.189,-,0.296,0.291,0.149,0.093,��,1.0,��
2018/06/12,10:20,0.301,0.192,-,0.293,0.291,0.150,0.093,���쓌,1.0,��
2018/06/12,10:30,0.301,0.191,-,0.295,0.293,0.150,0.093,��쓌,0.9,��
2018/06/12,10:40,0.299,0.191,-,0.294,0.288,0.150,0.093,-,CALM,��
2018/06/12,10:50,0.302,0.191,-,0.292,0.292,0.151,0.093,��쓌,1.3,��
2018/06/12,11:00,0.300,0.190,-,0.295,0.292,0.149,0.093,��쓌,1.4,��
2018/06/12,11:10,0.301,0.191,-,0.293,0.289,0.150,0.092,��쓌,0.9,��
2018/06/12,11:20,0.303,0.190,-,0.296,0.294,0.151,0.093,-,CALM,��
2018/06/12,11:30,0.301,0.190,-,0.296,0.292,0.151,0.093,��,1.2,��
2018/06/12,11:40,0.302,0.191,-,0.294,0.290,0.150,0.092,-,CALM,��
2018/06/12,11:50,0.301,0.190,-,0.297,0.294,0.150,0.094,��,0.6,��
2018/06/12,12:00,0.300,0.192,-,0.293,0.291,0.151,0.092,-,CALM,��
2018/06/12,12:10,0.304,0.191,-,0.295,0.289,0.151,0.093,-,CALM,��
2018/06/12,12:20,0.300,0.189,-,0.296,0.294,0.150,0.092,�쓌,1.6,��
2018/06/12,12:30,0.300,0.192,-,0.292,0.292,0.151,0.093,�쓌,1.7,��
2018/06/12,12:40,0.305,0.190,-,0.295,0.289,0.151,0.093,�쓌,1.8,��
2018/06/12,12:50,0.300,0.190,-,0.295,0.294,0.151,0.094,���쓌,1.6,��
2018/06/12,13:00,0.301,0.192,-,0.293,0.292,0.151,0.092,���쓌,2.2,��
2018/06/12,13:10,0.303,0.190,-,0.296,0.291,0.151,0.093,�쓌,1.6,��
2018/06/12,13:20,0.300,0.191,-,0.293,0.295,0.150,0.093,���쓌,1.1,��
2018/06/12,13:30,0.303,0.191,-,0.297,0.292,0.152,0.092,���쓌,1.3,��
2018/06/12,13:40,0.303,0.191,-,0.295,0.291,0.150,0.093,���쓌,0.8,��
2018/06/12,13:50,0.303,0.192,-,0.296,0.294,0.152,0.093,���k��,1.7,��
2018/06/12,14:00,0.302,0.190,-,0.295,0.291,0.151,0.093,���k��,2.3,��
2018/06/12,14:10,0.303,0.192,-,0.293,0.295,0.150,0.094,�k��,2.4,��
2018/06/12,14:20,0.304,0.191,-,0.297,0.293,0.153,0.093,���k��,2.2,��
2018/06/12,14:30,0.301,0.192,-,0.295,0.293,0.151,0.093,���k��,2.5,��
2018/06/12,14:40,0.305,0.191,-,0.295,0.294,0.151,0.092,���k��,2.9,��
2018/06/12,14:50,0.302,0.191,-,0.295,0.292,0.151,0.093,�k��,2.0,��
2018/06/12,15:00,0.303,0.192,-,0.295,0.295,0.151,0.093,�k��,3.3,�L
2018/06/12,15:10,0.303,0.192,-,0.294,0.292,0.152,0.094,�k,2.7,�L
2018/06/12,15:20,0.305,0.193,0.307,0.299,0.295,0.153,0.095,���쐼,1.3,�L
2018/06/12,15:30,0.305,0.196,0.310,0.297,0.294,0.156,0.097,�k,2.8,�L
2018/06/12,15:40,0.307,0.195,0.310,0.299,0.297,0.156,0.098,�k�k��,4.3,�L
2018/06/12,15:50,0.307,0.198,0.311,0.299,0.298,0.157,0.100,�k�k��,2.8,�L
2018/06/12,16:00,0.308,0.198,0.311,0.300,0.300,0.159,0.100,���k��,2.5,�L
2018/06/12,16:10,0.307,0.198,0.309,0.299,0.296,0.159,0.101,�k��,1.6,�L
2018/06/12,16:20,0.309,0.197,0.310,0.301,0.297,0.159,0.099,���쓌,1.0,��
2018/06/12,16:30,0.305,0.197,0.308,0.297,0.296,0.157,0.099,���쓌,0.8,�L
2018/06/12,16:40,0.307,0.195,0.309,0.298,0.297,0.156,0.098,�k��,1.9,��
2018/06/12,16:50,0.303,0.196,0.307,0.296,0.294,0.155,0.097,���k��,0.9,��
2018/06/12,17:00,0.304,0.195,0.306,0.298,0.292,0.154,0.096,�k�k��,1.5,��
2018/06/12,17:10,0.302,0.194,0.305,0.295,0.293,0.153,0.095,�k��,1.4,��
2018/06/12,17:20,0.303,0.192,0.306,0.295,0.293,0.152,0.095,�k��,1.5,��
2018/06/12,17:30,0.301,0.193,0.305,0.294,0.293,0.152,0.095,���k��,2.0,��
2018/06/12,17:40,0.302,0.192,0.305,0.293,0.291,0.151,0.094,�쓌,0.9,��
2018/06/12,17:50,0.301,0.191,0.303,0.294,0.292,0.151,0.094,���k��,1.4,��
2018/06/12,18:00,0.300,0.190,0.305,0.294,0.289,0.152,0.094,�k�k��,1.3,��
2018/06/12,18:10,0.300,0.190,0.304,0.293,0.292,0.151,0.093,�k,1.5,��
2018/06/12,18:20,0.301,0.191,0.304,0.294,0.290,0.152,0.092,�k�k��,1.7,��
2018/06/12,18:30,0.301,0.191,0.303,0.294,0.292,0.150,0.094,���k��,1.5,��
2018/06/12,18:40,0.300,0.190,0.305,0.292,0.290,0.151,0.093,�k�k��,1.3,��
2018/06/12,18:50,0.301,0.191,0.303,0.294,0.293,0.150,0.093,�k�k��,1.5,��
2018/06/12,19:00,0.299,0.190,0.304,0.293,0.290,0.151,0.092,�k�k��,1.4,��
2018/06/12,19:10,0.300,0.190,0.304,0.294,0.292,0.149,0.093,�k��,1.6,��
2018/06/12,19:20,0.300,0.190,0.305,0.292,0.289,0.151,0.093,�k,2.3,��
2018/06/12,19:30,0.301,0.191,0.303,0.293,0.291,0.150,0.093,�k�k��,4.1,��
2018/06/12,19:40,0.300,0.191,0.304,0.293,0.291,0.151,0.093,�k�k��,3.2,��
2018/06/12,19:50,0.301,0.190,0.303,0.293,0.290,0.151,0.093,�k�k��,1.1,��
2018/06/12,20:00,0.299,0.190,0.304,0.291,0.291,0.150,0.092,�k�k��,2.2,�L
2018/06/12,20:10,0.301,0.191,0.303,0.293,0.293,0.150,0.093,�k�k��,3.1,��
2018/06/12,20:20,0.301,0.191,0.303,0.292,0.291,0.150,0.092,�k,2.6,��
2018/06/12,20:30,0.301,0.191,0.304,0.294,0.292,0.151,0.092,�k,1.8,��
2018/06/12,20:40,0.300,0.192,0.304,0.292,0.291,0.150,0.092,�k�k��,2.5,��
2018/06/12,20:50,0.301,0.189,0.303,0.294,0.289,0.151,0.093,�k�k��,2.3,��
2018/06/12,21:00,0.299,0.191,0.305,0.293,0.291,0.150,0.092,�k,2.1,��
2018/06/12,21:10,0.302,0.190,0.303,0.295,0.290,0.151,0.092,�k,1.5,��
2018/06/12,21:20,0.299,0.191,0.305,0.291,0.292,0.151,0.092,�k�k��,3.5,��
2018/06/12,21:30,0.302,0.191,0.302,0.293,0.290,0.150,0.092,�k�k��,1.8,��
2018/06/12,21:40,0.301,0.191,0.304,0.293,0.291,0.150,0.093,�k,1.5,��
2018/06/12,21:50,0.300,0.191,0.302,0.294,0.291,0.151,0.093,�k�k��,3.1,��
2018/06/12,22:00,0.300,0.189,0.305,0.292,0.292,0.150,0.092,�k�k��,1.4,��
2018/06/12,22:10,0.301,0.191,0.302,0.294,0.290,0.150,0.092,�k�k��,1.8,��
2018/06/12,22:20,0.300,0.190,0.305,0.292,0.292,0.150,0.093,�k�k��,1.8,��
2018/06/12,22:30,0.301,0.190,0.302,0.292,0.290,0.151,0.092,�k,1.1,��
2018/06/12,22:40,0.298,0.190,0.306,0.294,0.291,0.150,0.093,�k��,1.3,��
2018/06/12,22:50,0.301,0.191,0.304,0.294,0.290,0.150,0.092,�k�k��,0.9,��
2018/06/12,23:00,0.300,0.191,0.306,0.292,0.293,0.151,0.092,�k��,0.9,��
2018/06/12,23:10,0.303,0.192,0.303,0.295,0.291,0.151,0.092,�k,0.9,��
2018/06/12,23:20,0.299,0.189,0.305,0.292,0.293,0.150,0.093,-,CALM,��
2018/06/12,23:30,0.302,0.191,0.303,0.295,0.289,0.151,0.092,�k,1.6,��
2018/06/12,23:40,0.299,0.190,0.306,0.293,0.292,0.150,0.093,�k�k��,1.1,��
2018/06/12,23:50,0.304,0.191,0.304,0.293,0.290,0.151,0.092,�k��,1.3,��
